Location: Springfield
(37.2150°N, 93.2980°W)
Time: 12:50:59
(UTC-06:00)

Tiangong 2 - Visible Passes

Search period start: 16 January 2018 00:00
Search period end: 26 January 2018 00:00
Orbit: 384 x 390 km, 42.8° (Epoch: 15 January)

Date Brightness Start Highest point End Pass type
(mag) Time Alt. Az. Time Alt. Az. Time Alt. Az.
16 Jan 3.4 06:02:24 10° SSW 06:05:01 24° SE 06:07:40 10° E visible
17 Jan 4.2 05:06:39 13° SE 05:06:39 13° SE 05:08:05 10° ESE visible
17 Jan 1.1 06:39:46 10° WSW 06:42:57 84° SSE 06:46:09 10° ENE visible
18 Jan 1.9 05:43:44 40° S 05:44:19 46° SSE 05:47:23 10° ENE visible
19 Jan 4.7 04:48:17 11° E 04:48:17 11° E 04:48:25 10° E visible
19 Jan 1.2 06:20:34 22° W 06:22:23 57° NNW 06:25:32 10° ENE visible
20 Jan 2.7 05:24:56 33° ENE 05:24:56 33° ENE 05:26:51 10° ENE visible
21 Jan 1.7 06:01:27 36° NW 06:01:51 38° NNW 06:04:52 10° ENE visible
22 Jan 4.1 05:05:34 15° ENE 05:05:34 15° ENE 05:06:11 10° ENE visible
22 Jan 2.4 06:37:51 13° WNW 06:40:13 28° N 06:43:03 10° ENE visible
23 Jan 2.5 05:41:54 28° NNE 05:41:54 28° NNE 05:44:13 10° ENE visible
24 Jan 2.4 06:18:10 19° NW 06:19:43 29° N 06:22:34 10° ENE visible
25 Jan 3.4 05:22:09 20° NE 05:22:09 20° NE 05:23:38 10° ENE visible
